Location: Asheville, NC
(35.6000°N, 82.5500°W)
Time: 14:19:11
(UTC-04:00)

CUBEBUG 2 - Pass Details

Date: 03 January 2018
Orbit: 586 x 700 km, 97.6° (Epoch: 25 April)

Event Time Altitude Azimuth Distance (km) Brightness Sun altitude
Rises 20:04:50 0° 205° (SSW) 2,795 ? -30.8°
Reaches altitude 10° 20:07:39 10° 227° (SW) 1,905 ? -31.3°
Maximum altitude 20:10:17 17° 267° (W) 1,539 ? -31.9°
Drops below altitude 10° 20:12:58 10° 307° (NW) 1,933 ? -32.4°
Sets 20:15:52 0° 328° (NNW) 2,857 ? -33.0°
